Location: Unspecified
(0.0000°N, 0.0000°E)
Time: 13:42:31
(UTC+01:00)

BREEZE-M DEB (TANK) - Visible Passes

Search period start: 14 February 2016 00:00
Search period end: 24 February 2016 00:00
Orbit: 362 x 16322 km, 49.5° (Epoch: 13 February)

Date Brightness Start Highest point End Pass type
(mag) Time Alt. Az. Time Alt. Az. Time Alt. Az.
14 Feb 7.5 01:01:48 10° SSW 01:07:27 11° S 01:16:03 10° SSE visible
14 Feb 8.4 06:29:44 10° SSW 09:03:05 87° ESE 10:01:17 10° NNE visible
14 Feb 4.3 20:25:59 10° N 20:35:53 - SE 20:26:03 11° N visible
15 Feb 7.9 01:50:09 10° S 02:07:00 12° SSE 04:25:48 10° E visible
15 Feb 4.7 21:07:55 10° NW 21:15:51 18° SSE 21:18:55 10° SE visible
16 Feb 8.2 02:35:39 10° S 04:46:16 23° ESE 05:54:05 10° ENE visible
16 Feb 5.1 21:51:03 10° W 21:55:02 29° SSW 22:03:35 10° SSE visible
17 Feb 8.4 03:20:32 10° SSW 05:38:23 36° ESE 06:49:48 10° ENE visible
17 Feb 6.3 22:35:27 10° WSW 22:39:30 17° SSW 22:47:44 10° SSE visible
18 Feb 8.6 04:05:26 10° SSW 06:28:21 50° ESE 07:38:56 10° NE visible
18 Feb 7.0 23:22:10 10° SSW 23:25:49 12° SSW 23:31:13 10° S visible
19 Feb 8.8 04:50:35 10° SSW 07:17:15 66° ESE 08:25:12 10° NE visible
20 Feb 8.7 05:36:16 10° SSW 08:05:08 82° ESE 09:09:51 10° NE visible
20 Feb 3.6 19:36:12 10° NNE 19:38:13 18° ENE 19:41:22 10° ESE visible
21 Feb 7.8 01:04:39 10° S 01:09:24 10° SSE 01:15:38 10° SSE visible
21 Feb 8.4 06:22:46 10° SSW 08:51:32 82° WNW 09:53:29 10° NNE visible
21 Feb 2.3 20:17:39 10° NW 20:20:21 86° NE 20:26:49 10° SE visible
22 Feb 8.1 01:45:49 10° S 03:49:34 19° ESE 04:53:37 10° E visible
22 Feb 4.6 21:00:33 10° WNW 21:03:38 31° SW 21:11:06 10° SSE visible
23 Feb 8.4 02:29:27 10° S 04:41:34 32° ESE 05:54:33 10° ENE visible
23 Feb 6.1 21:44:47 10° WSW 21:48:10 16° SSW 21:54:36 10° S visible
